Regional Weather Roundup
Issued by NWS Midland/Odessa, TX

Home | Current Version | Previous Version | Text Only | Print | Product List | Glossary On
Versions: 1 2 3 4 5 6 7 8 9 10 11 12 13 14 15 16 17 18 19 20 21 22 23 24 25 26 27 28 29 30 31 32 33 34 35 36 37 38 39 40 41 42 43 44 45 46 47 48 49 50
000
ASUS44 KMAF 170910
RWRMAF
MIDLAND AREA WEATHER ROUNDUP
NATIONAL WEATHER SERVICE MIDLAND TX
400 AM CDT WED SEP 17 2014

...IN SOUTHWEST TEXAS AND SOUTHEAST NEW MEXICO...

CITY           SKY/WX    TMP DP  RH WIND       PRES   REMARKS
ALPINE         MOCLDY    63  60  90 W7        30.19S
ANDREWS        FAIR      67  67  98 NE3       30.08F
ARTESIA        NOT AVBL
BIG SPRING     CLOUDY    74  69  85 CALM      30.07F
CARLSBAD       CLOUDY    68 N/A N/A W5        30.08F
DRYDEN           N/A     76  69  79 CALM      30.00F
FORT STOCKTON  MOCLDY    69  64  84 S9        30.05F
GUAD PASS      FOG       62  62 100 NE28      30.17F VSB 1/2
HOBBS          CLOUDY    64  64 100 E5        30.12F
MARFA          MOCLDY    59  57  94 NW5       30.18S
MIDLAND AIRPK  NOT AVBL
MIDLAND INTL   MOCLDY    71  66  84 E6        30.05F
ODESSA         MOCLDY    70  65  84 E8        30.07F
PECOS          PTCLDY    69  64  84 NE5       30.03F
PRESIDIO       FAIR      75  63  64 N8        30.02F
SEMINOLE       CLOUDY    67  66  98 CALM      30.10F FOG
SNYDER         CLOUDY    70  69  95 NE5       30.05F
WINK           MOCLDY    72  65  78 E7        30.03F
$$
...OTHER STATIONS IN TEXAS...

CITY           SKY/WX    TMP DP  RH WIND       PRES   REMARKS
ABILENE        LGT RAIN  75  69  81 SE3       30.02F
AMARILLO       MOCLDY    63  61  93 SW8       30.09F
AUSTIN         CLOUDY    76  74  93 CALM      29.97F
BROWNSVILLE    PTCLDY    78  76  93 S6        29.93F
CORPUS CHRISTI PTCLDY    77  75  93 S5        29.93F
DALLAS FTW     CLOUDY    78  70  76 CALM      29.96F
DEL RIO        MOCLDY    77  73  87 E5        29.95F
EL PASO        CLOUDY    69  64  84 N9        30.07F
HOUSTON INT    CLOUDY    76  75  97 CALM      29.95F
LUBBOCK        CLOUDY    68  65  90 S7        30.08F
SAN ANGELO     CLOUDY    76  68  76 NE3       30.01F
SAN ANTONIO    LGT RAIN  78  75  90 E5        29.97F
WACO           PTCLDY    72  70  93 CALM      29.97F
WICHITA FALLS  NOT AVBL
$$
...OTHER LOCATIONS IN NEW MEXICO...

CITY           SKY/WX    TMP DP  RH WIND       PRES   REMARKS
ALAMAGORDO     CLOUDY    64  64 100 CALM      30.11F
ALBUQUERQUE    CLOUDY    62  54  74 S3        30.20F
CANNON AFB     MOCLDY    64  59  82 W6        30.13F
CLOVIS           N/A     64  59  82 W3        30.15F
HOLLOMAN AFB   CLOUDY    65  65 100 CALM      30.09F
ROSWELL        LGT RAIN  67  65  93 CALM      30.10F
RUIDOSO        CLOUDY    55  55 100 CALM      30.28F FOG
SANTA FE       CLOUDY    58  51  78 CALM      30.23F
TRUTH OR CONSE HVY RAIN  63  61  93 NW5       30.14F FOG
TUCUMCARI      MOCLDY    63  58  83 W3        30.10F
$$



USA.gov is the U.S. government's official web portal to all federal, state and local government web resources and services.